Location: Huesca
(42.1318°N, 0.4078°W)
Time: 12:35:47
(UTC+01:00)

O/OREOS (USA 219) - Pass Details

Date: 17 November 2024
Orbit: 590 x 609 km, 72.0° (Epoch: 06 December)

Event Time Altitude Azimuth Distance (km) Brightness Sun altitude
Rises 18:45:58 0° 214° (SSW) 2,819 ? -12.6°
Reaches altitude 10° 18:48:14 10° 219° (SW) 1,919 ? -13.0°
Maximum altitude 18:52:25 51° 296° (WNW) 744 ? -13.8°
Drops below altitude 10° 18:56:37 10° 13° (NNE) 1,926 ? -14.5°
Enters shadow 18:57:49 - 16° (NNE) 2,396 ? -14.8°
